Flag for U.S.A. Weather past 2 weeks in Evansville, Indiana, U.S.A.

Now
44 °F

Clear.


Feels Like: 44 °F
Forecast: 46 / 69 °F
Wind: No wind

Location: Evansville Regional Airport


UV Index: 3 (Moderate)

Visibility: 10 mi


Pressure: 30.27 "Hg

Humidity: 82%

Dew point: 39 °F

Location of EvansvilleLocation

Historic Weather in Evansville

°F

Evansville temperature yesterday

Maximum temperature yesterday: 67 °F (at 3:54 PM)
Minimum temperature yesterday: 38 °F (at 4:54 AM)
Average temperature yesterday: 55 °F

Past Weeks' High & Low Weather Summary

 TemperatureHumidityPressure
High80 °F (Apr 12, 2:54 PM)96% (Apr 3, 10:54 PM)30.37 "Hg (Apr 3, 10:54 PM)
Low32 °F (Apr 16, 3:54 AM)30% (Apr 10, 3:54 PM)29.47 "Hg (Apr 7, 1:54 PM)
Average55 °F63%29.98 "Hg
* Reported Apr 3 4:54 AM — Apr 18 4:54 AM, Evansville, Weather by CustomWeather, © 2014

Note: Actual official high and low records may vary slightly from our data, if they occured in-between our weather recording intervals... More about our weather records

Advertising

Historic Weather Conditions — Data for Previous 24 hours

 ConditionsComfort  
Time TempWeatherWind HumidityBarometerVisibility
4:54 AM
Apr 18
45 °FClear.No wind80%30.27 "Hg10 mi
3:54 AM46 °FClear.No wind79%30.26 "Hg10 mi
2:54 AM48 °FClear.No wind80%30.26 "Hg10 mi
1:54 AM49 °FClear.No wind74%30.25 "Hg10 mi
12:54 AM49 °FClear.No wind77%30.25 "Hg10 mi
11:54 PM
Apr 17
52 °FClear.No wind72%30.26 "Hg10 mi
10:54 PM53 °FClear.No wind66%30.27 "Hg10 mi
9:54 PM56 °FClear.No wind55%30.27 "Hg10 mi
8:54 PM57 °FClear.No wind55%30.25 "Hg10 mi
7:54 PM63 °FClear.No wind38%30.24 "Hg10 mi
6:54 PM65 °FSunny.3 mph39%30.24 "Hg10 mi
5:54 PM67 °FSunny.8 mph33%30.25 "Hg10 mi
4:54 PM67 °FSunny.6 mph33%30.24 "Hg10 mi
3:54 PM67 °FSunny.10 mph33%30.25 "Hg8 mi
2:54 PM66 °FSunny.9 mph34%30.26 "Hg10 mi
1:54 PM65 °FSunny.9 mph39%30.29 "Hg10 mi
12:54 PM63 °FSunny.12 mph43%30.31 "Hg7 mi
11:54 AM62 °FSunny.15 mph44%30.33 "Hg9 mi
10:54 AM60 °FSunny.14 mph44%30.34 "Hg9 mi
9:54 AM57 °FSunny.17 mph49%30.34 "Hg10 mi
8:54 AM54 °FSunny.15 mph49%30.32 "Hg8 mi
7:54 AM50 °FSunny.9 mph54%30.31 "Hg10 mi
6:54 AM44 °FSunny.5 mph60%30.28 "Hg10 mi
Weather by CustomWeather, © 2014

See weather overview